Pecs, Hungary

1:29 PM CEST on April 25, 2017 (GMT +0200)
Pecs

Weather History for LHPP - January, 2013

Change the Weather History Date:

Monday, January 21, 2013

  Actual Average Record
Temperature  
Mean Temperature 48 °F -  
Max Temperature 54 °F 39 °F - ()
Min Temperature 41 °F 28 °F - ()
Degree Days  
Heating Degree Days 18    
Moisture  
Dew Point 43 °F    
Average Humidity 85    
Maximum Humidity 100    
Minimum Humidity 67    
Precipitation  
Precipitation 0.02 in 0.04 in - ()
Sea Level Pressure  
Sea Level Pressure 29.42 in    
Wind  
Wind Speed 5 mph ()    
Max Wind Speed 13 mph    
Max Gust Speed -    
Visibility 6.0 miles    
Events Rain    
T = Trace of Precipitation, MM = Missing Value Source: Averaged Metar Reports

Daily Weather History Graph

Daily Weather History Graph

Search for Another Location

Airport or City:

Trip Planner

Search our weather history database for the weather conditions in past years. The results will help you decide how hot, cold, wet, or windy it might be!

Date:

Astronomy

Jan. 21, 2013 Rise Set
Actual Time 7:20 AM CET 4:36 PM CET
Civil Twilight 6:47 AM CET 5:09 PM CET
Nautical Twilight 6:11 AM CET 5:46 PM CET
Astronomical Twilight 5:35 AM CET 6:21 PM CET
Moon 12:03 PM CET (1/21) 2:32 AM CET (1/21)
Length of Visible Light 10h 21m
Length of Day
9h 15m
Waxing Gibbous, 73% of the Moon is Illuminated
Jan 21
Waxing Gibbous
Jan 27
Full
Feb 3
Last Quarter
Feb 10
New
Feb 17
First Quarter

Hourly Weather History & Observations

Time (CET) Temp. Windchill Dew Point Humidity Pressure Visibility Wind Dir Wind Speed Gust Speed Precip Events Conditions
12:45 AM 44.6 °F 43.1 °F 41.0 °F 87% 29.47 in 5.0 mi North 3.5 mph - N/A   Overcast
1:00 AM 44 °F - 42 °F 88% 29.49 in 5 mi North 4.5 mph - -   Partly Cloudy
1:45 AM 46.4 °F 45.2 °F 42.8 °F 87% 29.47 in 5.0 mi NNW 3.5 mph - N/A   Overcast
2:29 AM 44.6 °F 40.7 °F 42.8 °F 93% 29.47 in - ESE 6.9 mph - N/A   Unknown
2:31 AM 44.6 °F 40.7 °F 42.8 °F 93% 29.50 in 5.0 mi ESE 6.9 mph - N/A Rain Light Rain
2:45 AM 44.6 °F 41.4 °F 42.8 °F 93% 29.47 in 5.0 mi East 5.8 mph - N/A Rain Light Rain
3:45 AM 44.6 °F 43.1 °F 42.8 °F 93% 29.44 in 5.0 mi NNE 3.5 mph - N/A Rain Light Rain
4:44 AM 44.6 °F 41.4 °F 42.8 °F 93% 29.44 in - ENE 5.8 mph - N/A   Unknown
4:45 AM 44.6 °F 41.4 °F 42.8 °F 93% 29.44 in 6.2 mi ENE 5.8 mph - N/A   Mostly Cloudy
5:15 AM 44.6 °F 42.2 °F 42.8 °F 93% 29.44 in - ENE 4.6 mph - N/A   Clear
5:45 AM 42.8 °F 37.5 °F 42.8 °F 100% 29.42 in - East 9.2 mph - N/A   Clear
6:00 AM - - - N/A% - 3.7 mi East 5.8 mph - N/A Rain Light Rain
6:15 AM 42.8 °F 40.1 °F 41.0 °F 93% 29.42 in - ENE 4.6 mph - N/A   Clear
6:45 AM 42.8 °F 40.1 °F 42.8 °F 100% 29.42 in 5.0 mi East 4.6 mph - N/A   Overcast
7:00 AM 43 °F - 42 °F 96% 29.44 in 5 mi East 4.5 mph - - Rain Light Rain
7:15 AM 44.6 °F 39.7 °F 42.8 °F 93% 29.42 in 6.2 mi East 9.2 mph - N/A   Overcast
7:45 AM 46.4 °F 41.9 °F 42.8 °F 87% 29.42 in 6.2 mi ESE 9.2 mph - N/A   Overcast
8:45 AM 50.0 °F - 41.0 °F 71% 29.42 in 6.2 mi South 5.8 mph - N/A   Overcast
9:00 AM - - - N/A% - 6.2 mi SSE 8.1 mph - N/A   Overcast
9:15 AM 51.8 °F - 41.0 °F 67% 29.42 in 6.2 mi South 12.7 mph - N/A   Overcast
9:45 AM 53.6 °F - 42.8 °F 67% 29.42 in 6.2 mi South 11.5 mph - N/A   Overcast
10:15 AM 50.0 °F - 42.8 °F 76% 29.42 in 6.2 mi SSW 8.1 mph - N/A   Overcast
10:45 AM 50.0 °F - 42.8 °F 76% 29.42 in 6.2 mi SSW 8.1 mph - N/A   Mostly Cloudy
11:15 AM 51.8 °F - 42.8 °F 71% 29.42 in 6.2 mi SSW 4.6 mph - N/A   Mostly Cloudy
11:45 AM 51.8 °F - 42.8 °F 71% 29.42 in 6.2 mi South 1.2 mph - N/A   Mostly Cloudy
12:00 PM - - - N/A% - 6.2 mi South 8.1 mph - N/A   Overcast
12:15 PM 53.6 °F - 44.6 °F 72% 29.42 in 6.2 mi South 6.9 mph - N/A   Mostly Cloudy
12:45 PM 53.6 °F - 44.6 °F 72% 29.39 in 6.2 mi South 8.1 mph - N/A   Mostly Cloudy
1:15 PM 53.6 °F - 44.6 °F 72% 29.39 in 6.2 mi South 4.6 mph - N/A   Mostly Cloudy
1:45 PM 53.6 °F - 46.4 °F 77% 29.39 in 6.2 mi SE 4.6 mph - N/A   Overcast
2:15 PM 53.6 °F - 44.6 °F 72% 29.39 in 6.2 mi South 4.6 mph - N/A   Overcast
2:45 PM 53.6 °F - 44.6 °F 72% 29.39 in - ESE 4.6 mph - N/A   Clear
3:00 PM - - - N/A% - 6.2 mi South 6.9 mph - N/A   Overcast
3:15 PM 51.8 °F - 44.6 °F 76% 29.39 in - SE 5.8 mph - N/A   Clear
3:45 PM 51.8 °F - 44.6 °F 76% 29.39 in 6.2 mi ESE 4.6 mph - N/A Rain Light Rain
4:45 PM 50.0 °F - 44.6 °F 82% 29.39 in 6.2 mi ESE 6.9 mph - N/A Rain Light Rain
5:15 PM 48.2 °F - 44.6 °F 87% 29.39 in 6.2 mi SE 2.3 mph - N/A Rain Light Rain
5:45 PM 48.2 °F - 44.6 °F 87% 29.39 in 6.2 mi Calm Calm - N/A Rain Light Rain
6:15 PM 48.2 °F - 44.6 °F 87% 29.39 in 6.2 mi Calm Calm - N/A Rain Light Rain
6:45 PM 48.2 °F - 44.6 °F 87% 29.39 in 6.2 mi WSW 2.3 mph - N/A Rain Light Rain
7:00 PM 48 °F - 44 °F 82% 29.39 in 9 mi WSW 2.2 mph - - Rain Light Rain
7:15 PM 46.4 °F - 44.6 °F 93% 29.39 in 6.2 mi NNW 2.3 mph - N/A   Overcast
7:45 PM 46.4 °F 45.2 °F 42.8 °F 87% 29.36 in 6.2 mi NNE 3.5 mph - N/A   Overcast
8:15 PM 46.4 °F 44.3 °F 44.6 °F 93% 29.36 in 6.2 mi NNE 4.6 mph - N/A   Mostly Cloudy
8:45 PM 46.4 °F 45.2 °F 42.8 °F 87% 29.39 in 6.2 mi ENE 3.5 mph - N/A   Mostly Cloudy
9:45 PM 44.6 °F 43.1 °F 42.8 °F 93% 29.39 in 6.2 mi SSW 3.5 mph - N/A   Overcast
10:45 PM 44.6 °F 41.4 °F 42.8 °F 93% 29.39 in 6.2 mi NNE 5.8 mph - N/A   Overcast
11:45 PM 41.0 °F 36.4 °F 39.2 °F 93% 29.39 in 6.2 mi North 6.9 mph - N/A   Overcast